Terminal Aerodrome Forecast
Issued by NWS Amarillo, TX

Home | Current Version | Previous Version | Text Only | Print | Product List | Glossary On
Versions: 1 2 3 4 5 6 7 8 9 10 11 12
728
FTUS44 KAMA 272332
TAFAMA
TAF
KAMA 272332Z 2800/2824 21019KT P6SM SCT300
      TEMPO 2800/2804 22019G29KT
     FM281500 23035G45KT P6SM OVC150=

USA.gov is the U.S. government's official web portal to all federal, state and local government web resources and services.